This demonstration page uses our WeatherBlox Daily Observations layout. Learn more.

Left ArrowRight Arrow

Hourly Observations for May 12, 2015

Temp ( °F °C ) Dew Point ( °F °C ) Humidity (%) Winds ( mph kmh ) Pressure ( in mb ) Visibility ( mi km ) Precip ( " mm )
12:53 am 00:53 Mostly Cloudy 59 15 34 1.1 39 39 NW 7 11 29.79 1009 10 16 0.00 0.00
1:53 am 01:53 Mostly Cloudy 58 14.4 34 1.1 41 41 WNW 8 13 29.78 1008 10 16 0.00 0.00
2:53 am 02:53 Cloudy 58 14.4 35 1.7 42 42 WNW 8 13 29.77 1008 10 16 0.00 0.00
3:53 am 03:53 Cloudy 58 14.4 35 1.7 42 42 WNW 9 15 29.77 1008 10 16 0.00 0.00
4:53 am 04:53 Cloudy 57 13.9 36 2.2 45 45 WNW 10 17 29.77 1008 10 16 0.00 0.00
5:53 am 05:53 Mostly Cloudy 57 13.9 36 2.2 45 45 NW 9 15 29.78 1008 10 16 0.00 0.00
6:53 am 06:53 Cloudy 56 13.3 43 6.1 62 62 NNW 6 9 29.80 1009 10 16 0.00 0.00
7:53 am 07:53 Cloudy 58 14.4 37 2.8 46 46 NNW 5 7 29.81 1010 10 16 0.00 0.00
8:53 am 08:53 Cloudy 60 15.6 40 4.4 47 47 VRB 6 9 29.83 1010 10 16 0.00 0.00
9:53 am 09:53 Cloudy 58 14.4 42 5.6 56 56 ENE 12 19 29.85 1011 10 16 0.00 0.00
10:53 am 10:53 Mostly Cloudy 58 14.4 40 4.4 51 51 E 10 17 29.86 1011 10 16 0.00 0.00
11:53 am 11:53 Mostly Sunny 63 17.2 39 3.9 41 41 ENE 6 9 29.86 1011 10 16 0.00 0.00
12:53 pm 12:53 Sunny 66 18.9 39 3.9 37 37 E 7 11 29.85 1011 10 16 0.00 0.00
1:53 pm 13:53 Cloudy with Light Rain 58 14.4 44 6.7 60 60 N 14 22 29.87 1011 6 10 0.00 0.03
2:53 pm 14:53 Sunny 66 18.9 40 4.4 39 39 NNE 7 11 29.86 1011 10 16 0.00 0.03
3:53 pm 15:53 Sunny 67 19.4 37 2.8 33 33 SE 6 9 29.85 1011 10 16 0.00 0.00
4:53 pm 16:53 Mostly Sunny 69 20.6 37 2.8 31 31 E 6 9 29.83 1010 10 16 0.00 0.00
5:53 pm 17:53 Mostly Cloudy 68 20 37 2.8 32 32 SSE 7 11 29.83 1010 10 16 0.00 0.00
6:53 pm 18:53 Partly Cloudy 68 20 39 3.9 35 35 SSW 10 17 29.83 1010 10 16 0.00 0.00
7:53 pm 19:53 Mostly Cloudy 66 18.9 40 4.4 39 39 S 8 13 29.84 1010 10 16 0.00 0.00
8:53 pm 20:53 Mostly Cloudy 63 17.2 42 5.6 47 47 SSE 3 6 29.85 1011 10 16 0.00 0.00
9:53 pm 21:53 Cloudy 63 17.2 42 5.6 47 47 Calm 29.86 1011 10 16 0.00 0.00
10:53 pm 22:53 Cloudy 62 16.7 41 5 46 46 WNW 6 9 29.88 1012 10 16 0.00 0.03
11:53 pm 23:53 Cloudy 61 16.1 40 4.4 46 46 NNW 6 9 29.88 1012 10 16 0.00 0.00

Powered by AerisWeather